{"data":{"norad_id":59263,"epoch":"2026-05-24T20:25:08.938560Z","epoch_age_seconds":91003,"freshness":"FRESH","line1":"1 59263U 24050K   26144.85079790  .00000337  00000+0  23492-4 0  9994","line2":"2 59263  53.1598 187.6045 0001247  82.7877 277.3265 15.30193139122206","mean_motion":15.30193139,"eccentricity":0.0001247,"inclination_deg":53.1598,"raan_deg":187.6045,"arg_perigee_deg":82.7877,"mean_anomaly_deg":277.3265,"bstar":2.3492e-5,"rev_number":12220,"period_min":94.105767651073,"perigee_km":474.38093964753,"apogee_km":476.0901707628,"semimajor_km":6853.3725552052,"source":"CELESTRAK","updated_at":"2026-05-25T13:38:18.875360Z"}}